Flag for Germany Weather past 2 weeks in Wittenberge, Mecklenburg-Western Pomerania, Germany

Now
56 °F

Overcast.


Feels Like: 56 °F
Forecast: 60 / 86 °F
Wind: 2 mph from Southwest

Location: Marnitz

Current Time: Aug 29, 2015 at 3:16:57 AM

Latest Report: Aug 29, 2015 at 3:00 AM


Visibility: 6 mi

Pressure: 30.17 "Hg

Humidity: 94%

Dew point: 54 °F

Location of WittenbergeLocation

Historic Weather in Wittenberge — Graph

°F

Wittenberge temperature yesterday

Maximum temperature yesterday: 66 °F (at 3:00 PM)
Minimum temperature yesterday: 56 °F (at 6:00 AM)
Average temperature yesterday: 60 °F

Past Weeks' High & Low Weather Summary

 TemperatureHumidityPressure
High91 °F (Aug 14, 5:00 PM)100% (Aug 16, 3:00 AM)30.31 "Hg (Aug 16, 3:00 AM)
Low49 °F (Aug 21, 6:00 AM)26% (Aug 21, 4:00 PM)29.67 "Hg (Aug 24, 8:00 PM)
Average66 °F74%29.95 "Hg
* Reported Aug 14 2:00 AM — Aug 29 2:00 AM, Wittenberge, Weather by CustomWeather, © 2015

Note: Actual official high and low records may vary slightly from our data, if they occured in-between our weather recording intervals... More about our weather records

Advertising

Wittenberge weather history for previous 24 hours

 ConditionsComfort  
Time TempWeatherWind HumidityBarometerVisibility
2:00 AM
Sat, Aug 29
56 °FPassing clouds.2 mph93%30.17 "Hg7 mi
1:00 AM56 °FPassing clouds.2 mph91%30.16 "Hg8 mi
11:00 PM
Fri, Aug 28
58 °FPassing clouds.2 mph87%30.14 "Hg19 mi
10:00 PM58 °FClear.3 mph83%30.12 "Hg25 mi
9:00 PM59 °FPassing clouds.3 mph80%30.10 "Hg28 mi
8:00 PM61 °FSunny.2 mph78%30.08 "Hg28 mi
7:00 PM64 °FSunny.3 mph71%30.07 "Hg28 mi
6:00 PM64 °FScattered clouds.3 mph68%30.08 "Hg28 mi
5:00 PM65 °FPartly sunny.5 mph65%30.07 "Hg28 mi
4:00 PM65 °FScattered clouds.3 mph70%30.06 "Hg34 mi
3:00 PM66 °FSunny.3 mph65%30.04 "Hg25 mi
2:00 PM63 °FOvercast.3 mph74%30.04 "Hg19 mi
1:00 PM63 °FOvercast.2 mph76%30.03 "Hg22 mi
12:00 PM61 °FOvercast.3 mph80%30.01 "Hg19 mi
11:00 AM60 °FOvercast.3 mph80%30.00 "Hg22 mi
10:00 AM59 °FLow clouds.2 mph91%29.98 "Hg7 mi
9:00 AM57 °FLow clouds.3 mph94%29.96 "Hg9 mi
8:00 AM57 °FLow clouds.2 mph96%29.93 "Hg10 mi
7:00 AM56 °FLow clouds.2 mph96%29.92 "Hg14 mi
6:00 AM56 °FOvercast.3 mph97%29.91 "Hg25 mi
5:00 AM56 °FOvercast.2 mph98%29.89 "Hg16 mi
4:00 AM57 °FLight rain. Low clouds.2 mph98%29.88 "Hg11 mi
3:00 AM57 °FLight rain. Low clouds.3 mph96%29.85 "Hg6 mi
Weather by CustomWeather, © 2015

See weather overviewHow to use our weather pages